Meteo orario Goianira

Oggi, 16 Aprile, Venerdi

Tempo Temperatura Precipitazioni Vento Pressione Umidità
00:00 +21°C° 0 mm 1 m/s 694 mm Hg 76%
01:00 +21°C° 0 mm 1 m/s 694 mm Hg 76%
02:00 +20°C° 0 mm 1 m/s 694 mm Hg 77%
03:00 +20°C° 0 mm 1 m/s 693 mm Hg 78%
04:00 +20°C° 0 mm 1 m/s 693 mm Hg 78%
05:00 +19°C° 0 mm 1 m/s 693 mm Hg 78%
06:00 +19°C° 0 mm 1 m/s 693 mm Hg 79%
07:00 +21°C° 0 mm 1 m/s 694 mm Hg 72%
08:00 +23°C° 0 mm 2 m/s 695 mm Hg 66%
09:00 +25°C° 0 mm 2 m/s 696 mm Hg 60%
10:00 +27°C° 0 mm 2 m/s 696 mm Hg 55%
11:00 +29°C° 0 mm 1 m/s 695 mm Hg 49%
12:00 +30°C° 0 mm 1 m/s 695 mm Hg 43%
13:00 +31°C° 0 mm 1 m/s 695 mm Hg 43%
14:00 +31°C° 0 mm 1 m/s 694 mm Hg 42%
15:00 +31°C° 0 mm 1 m/s 694 mm Hg 41%
16:00 +29°C° 0 mm 1 m/s 693 mm Hg 48%
17:00 +28°C° 0 mm 1 m/s 693 mm Hg 55%
18:00 +26°C° 0 mm 1 m/s 693 mm Hg 61%
19:00 +25°C° 0 mm 1 m/s 693 mm Hg 63%
20:00 +25°C° 0 mm 1 m/s 693 mm Hg 64%
21:00 +24°C° 0 mm 1 m/s 694 mm Hg 66%
22:00 +24°C° 0 mm 1 m/s 694 mm Hg 67%
23:00 +23°C° 0 mm 1 m/s 694 mm Hg 68%

Domani, 17 Aprile, Sabato

Tempo Temperatura Precipitazioni Vento Pressione Umidità
00:00 +23°C° 0 mm 1 m/s 694 mm Hg 69%
01:00 +22°C° 0 mm 1 m/s 694 mm Hg 71%
02:00 +19°C° 0 mm 0 m/s 693 mm Hg 74%
03:00 +19°C° 0 mm 0 m/s 693 mm Hg 77%
04:00 +18°C° 0 mm 0 m/s 693 mm Hg 78%
05:00 +18°C° 0 mm 0 m/s 693 mm Hg 79%
06:00 +17°C° 0 mm 0 m/s 694 mm Hg 81%
07:00 +21°C° 0 mm 1 m/s 694 mm Hg 74%
08:00 +23°C° 0 mm 1 m/s 695 mm Hg 67%
09:00 +25°C° 0 mm 1 m/s 696 mm Hg 61%
10:00 +27°C° 0 mm 1 m/s 695 mm Hg 55%
11:00 +29°C° 0 mm 1 m/s 695 mm Hg 49%
12:00 +30°C° 0 mm 1 m/s 695 mm Hg 43%
13:00 +31°C° 0 mm 1 m/s 695 mm Hg 43%
14:00 +31°C° 0 mm 1 m/s 694 mm Hg 42%
15:00 +31°C° 0 mm 1 m/s 693 mm Hg 42%
16:00 +29°C° 0 mm 1 m/s 693 mm Hg 50%
17:00 +28°C° 0 mm 1 m/s 693 mm Hg 57%
18:00 +26°C° 0 mm 1 m/s 692 mm Hg 65%
19:00 +25°C° 0 mm 1 m/s 693 mm Hg 67%
20:00 +24°C° 0 mm 1 m/s 693 mm Hg 69%
21:00 +24°C° 0 mm 1 m/s 693 mm Hg 71%
22:00 +21°C° 0.1 mm 0 m/s 693 mm Hg 74%
23:00 +20°C° 0.1 mm 0 m/s 693 mm Hg 76%

Dopodomani, 18 Aprile, Domenica

Tempo Temperatura Precipitazioni Vento Pressione Umidità
00:00 +20°C° 0.1 mm 0 m/s 694 mm Hg 78%
01:00 +19°C° 0.1 mm 0 m/s 693 mm Hg 80%
02:00 +19°C° 0.1 mm 0 m/s 693 mm Hg 82%
03:00 +19°C° 0.1 mm 0 m/s 693 mm Hg 83%
04:00 +18°C° 0 mm 0 m/s 693 mm Hg 85%
05:00 +18°C° 0 mm 0 m/s 693 mm Hg 86%
06:00 +18°C° 0 mm 0 m/s 693 mm Hg 88%
07:00 +19°C° 0 mm 0 m/s 694 mm Hg 83%
08:00 +21°C° 0 mm 0 m/s 695 mm Hg 77%
09:00 +25°C° 0 mm 1 m/s 695 mm Hg 72%
10:00 +27°C° 0 mm 1 m/s 695 mm Hg 63%
11:00 +29°C° 0 mm 1 m/s 695 mm Hg 55%
12:00 +31°C° 0 mm 1 m/s 695 mm Hg 47%
13:00 +31°C° 0 mm 1 m/s 694 mm Hg 45%
14:00 +31°C° 0 mm 1 m/s 694 mm Hg 44%
15:00 +31°C° 0 mm 2 m/s 693 mm Hg 43%
16:00 +29°C° 0 mm 2 m/s 693 mm Hg 51%
17:00 +28°C° 0 mm 1 m/s 692 mm Hg 60%
18:00 +26°C° 0 mm 1 m/s 692 mm Hg 69%
19:00 +25°C° 0.1 mm 1 m/s 692 mm Hg 72%
20:00 +24°C° 0.1 mm 1 m/s 693 mm Hg 75%
21:00 +21°C° 0.1 mm 0 m/s 693 mm Hg 78%
22:00 +20°C° 0.6 mm 0 m/s 693 mm Hg 83%
23:00 +21°C° 0.6 mm 1 m/s 693 mm Hg 88%

19 Aprile, Lunedi

Tempo Temperatura Precipitazioni Vento Pressione Umidità
00:00 +21°C° 0.6 mm 1 m/s 693 mm Hg 93%
01:00 +21°C° 0.3 mm 1 m/s 693 mm Hg 93%
02:00 +20°C° 0.3 mm 1 m/s 693 mm Hg 94%
03:00 +20°C° 0.3 mm 1 m/s 693 mm Hg 94%
04:00 +20°C° 0.3 mm 1 m/s 693 mm Hg 95%
05:00 +20°C° 0.3 mm 1 m/s 693 mm Hg 95%
06:00 +20°C° 0.3 mm 1 m/s 693 mm Hg 95%
07:00 +21°C° 0 mm 1 m/s 694 mm Hg 91%
08:00 +22°C° 0 mm 1 m/s 694 mm Hg 87%
09:00 +23°C° 0 mm 1 m/s 695 mm Hg 83%
10:00 +25°C° 0 mm 1 m/s 695 mm Hg 74%
11:00 +27°C° 0 mm 1 m/s 695 mm Hg 66%
12:00 +29°C° 0 mm 1 m/s 695 mm Hg 57%
13:00 +29°C° 0.3 mm 1 m/s 694 mm Hg 58%
14:00 +29°C° 0.3 mm 1 m/s 693 mm Hg 59%
15:00 +29°C° 0.3 mm 2 m/s 693 mm Hg 60%
16:00 +27°C° 1.1 mm 2 m/s 693 mm Hg 68%
17:00 +25°C° 1.1 mm 2 m/s 692 mm Hg 77%
18:00 +23°C° 1.1 mm 1 m/s 692 mm Hg 85%
19:00 +22°C° 0.8 mm 1 m/s 693 mm Hg 88%
20:00 +22°C° 0.8 mm 1 m/s 693 mm Hg 90%
21:00 +19°C° 0.8 mm 0 m/s 693 mm Hg 92%
22:00 +21°C° 0.7 mm 1 m/s 693 mm Hg 92%
23:00 +21°C° 0.7 mm 1 m/s 694 mm Hg 93%

20 Aprile, Martedi

Tempo Temperatura Precipitazioni Vento Pressione Umidità
00:00 +21°C° 0.7 mm 1 m/s 694 mm Hg 93%
01:00 +21°C° 0.4 mm 1 m/s 693 mm Hg 93%
02:00 +21°C° 0.4 mm 1 m/s 693 mm Hg 94%
03:00 +20°C° 0.4 mm 1 m/s 693 mm Hg 94%
04:00 +20°C° 0.1 mm 1 m/s 693 mm Hg 94%
05:00 +20°C° 0.1 mm 1 m/s 693 mm Hg 94%
06:00 +20°C° 0.1 mm 1 m/s 693 mm Hg 94%
07:00 +21°C° 0.1 mm 1 m/s 694 mm Hg 91%
08:00 +22°C° 0.1 mm 1 m/s 694 mm Hg 88%
09:00 +23°C° 0.1 mm 2 m/s 695 mm Hg 85%
10:00 +24°C° 0.8 mm 2 m/s 695 mm Hg 82%
11:00 +25°C° 0.8 mm 2 m/s 695 mm Hg 79%
12:00 +25°C° 0.8 mm 2 m/s 695 mm Hg 77%
13:00 +25°C° 0.8 mm 2 m/s 694 mm Hg 77%
14:00 +25°C° 0.8 mm 2 m/s 693 mm Hg 77%
15:00 +26°C° 0.8 mm 2 m/s 693 mm Hg 77%
16:00 +24°C° 1.4 mm 1 m/s 693 mm Hg 82%
17:00 +23°C° 1.4 mm 1 m/s 693 mm Hg 87%
18:00 +22°C° 1.4 mm 1 m/s 693 mm Hg 92%
19:00 +22°C° 1.7 mm 1 m/s 693 mm Hg 93%
20:00 +21°C° 1.7 mm 1 m/s 693 mm Hg 94%
21:00 +21°C° 1.7 mm 1 m/s 694 mm Hg 95%
22:00 +21°C° 0.3 mm 1 m/s 694 mm Hg 96%
23:00 +19°C° 0.3 mm 2 m/s 694 mm Hg 96%

21 Aprile, Mercoledi

Tempo Temperatura Precipitazioni Vento Pressione Umidità
00:00 +19°C° 0.3 mm 2 m/s 694 mm Hg 96%
01:00 +20°C° 0 mm 1 m/s 693 mm Hg 96%
02:00 +20°C° 0 mm 1 m/s 693 mm Hg 96%
03:00 +20°C° 0 mm 1 m/s 693 mm Hg 96%
04:00 +20°C° 0 mm 1 m/s 693 mm Hg 96%
05:00 +19°C° 0 mm 1 m/s 693 mm Hg 96%
06:00 +19°C° 0 mm 1 m/s 693 mm Hg 96%
07:00 +20°C° 0.1 mm 1 m/s 694 mm Hg 93%
08:00 +22°C° 0.1 mm 1 m/s 694 mm Hg 89%
09:00 +23°C° 0.1 mm 1 m/s 695 mm Hg 86%
10:00 +24°C° 0.8 mm 1 m/s 695 mm Hg 81%
11:00 +25°C° 0.8 mm 1 m/s 695 mm Hg 76%
12:00 +26°C° 0.8 mm 1 m/s 695 mm Hg 71%
13:00 +27°C° 0.4 mm 1 m/s 694 mm Hg 69%
14:00 +27°C° 0.4 mm 1 m/s 694 mm Hg 68%
15:00 +27°C° 0.4 mm 1 m/s 693 mm Hg 67%
16:00 +25°C° 0.4 mm 1 m/s 693 mm Hg 73%
17:00 +24°C° 0.4 mm 1 m/s 693 mm Hg 80%
18:00 +20°C° 0.4 mm 0 m/s 693 mm Hg 86%
19:00 +22°C° 0.2 mm 1 m/s 693 mm Hg 88%
20:00 +21°C° 0.2 mm 1 m/s 693 mm Hg 90%
21:00 +21°C° 0.2 mm 1 m/s 694 mm Hg 92%
22:00 +20°C° 0 mm 1 m/s 694 mm Hg 92%
23:00 +20°C° 0 mm 1 m/s 694 mm Hg 93%
Mostrare altro

Abbiamo bisogno del tuo consenso

Meteoprog e i nostri fornitori di servizi possono memorizzare e accedere a dati personali come cookie, identificatori di dispositivi o altre tecnologie simili sul tuo dispositivo e possono elaborare tali dati per personalizzare i contenuti e gli annunci, nonché fornire funzionalità dei social media e analizzarne il traffico.

  • Archiviare e/o accedere alle informazioni sul tuo dispositivo

    Cookie, identificatori di dispositivi o altre informazioni possono essere memorizzati o resi accessibili sul tuo dispositivo per le finalità sopra indicate.

  • Annunci e contenuti personalizzati, misurazione di annunci e contenuti, approfondimenti sul pubblico e sviluppo di prodotti

    Gli annunci e i contenuti possono essere personalizzati in base a un profilo. È possibile aggiungere più dati per personalizzare meglio annunci e contenuti. È possibile misurare il rendimento degli annunci e dei contenuti. È possibile ricavare informazioni sul pubblico che ha visto gli annunci e i contenuti. Tali dati possono essere utilizzati per sviluppare o migliorare l'esperienza, i sistemi e il software dell'utente.

Cliccando su “Accetto”, acconsenti all'uso di cookie, identificatori di dispositivo, web beacon o altre tecnologie simili. Puoi modificare le impostazioni nel browser del tuo dispositivo.

Per determinati scopi, è possibile fare affidamento su interessi legali, piuttosto che sul consenso. Puoi approfondire questo argomento consultando la nostra Informativa sulla privacy e sui cookie.